Buffalo, SD

8:35 AM MST on January 16, 2017 (GMT -0700)
Buffalo

Weather History for K2WX - January, 2014

Change the Weather History Date:

Thursday, January 16, 2014

  Actual Average Record
Temperature  
Mean Temperature 26 °F 20 °F  
Max Temperature 33 °F 31 °F 51 °F (2015)
Min Temperature 19 °F 10 °F -10 °F (2016)
Degree Days  
Heating Degree Days 39 45  
Month to date heating degree days 694 720  
Since 1 July heating degree days 4030 3980  
Cooling Degree Days 0 0  
Month to date cooling degree days 0 0  
Year to date cooling degree days 0 0  
Moisture  
Dew Point 18 °F    
Average Humidity 70    
Maximum Humidity 84    
Minimum Humidity 56    
Precipitation  
Precipitation 0.00 in 0.01 in 0.03 in (2012)
Month to date precipitation 0.02 0.15  
Year to date precipitation 0.02 0.15  
Sea Level Pressure  
Sea Level Pressure 30.13 in    
Wind  
Wind Speed 31 mph (NW)    
Max Wind Speed 54 mph    
Max Gust Speed 63 mph    
T = Trace of Precipitation, MM = Missing Value Source: NWS Daily Summary

Daily Weather History Graph

Daily Weather History Graph

Search for Another Location

Airport or City:

Trip Planner

Search our weather history database for the weather conditions in past years. The results will help you decide how hot, cold, wet, or windy it might be!

Date:

Astronomy

Jan. 16, 2014 Rise Set
Actual Time 7:29 AM MST 4:38 PM MST
Civil Twilight 6:56 AM MST 5:11 PM MST
Nautical Twilight 6:20 AM MST 5:48 PM MST
Astronomical Twilight 5:44 AM MST 6:23 PM MST
Moon 5:37 PM MST 7:20 AM MST
Length of Visible Light 10h 14m
Length of Day
9h 08m
Full, 100% of the Moon is Illuminated
Jan 16
Full
Jan 23
Last Quarter
Jan 30
New
Feb 6
First Quarter
Feb 14
Full

Hourly Weather History & Observations

Time (MST) Temp. Windchill Dew Point Humidity Pressure Visibility Wind Dir Wind Speed Gust Speed Precip Events Conditions
12:56 AM 32.0 °F 16.2 °F 19.9 °F 61% 29.92 in - WNW 38.0 mph 46.0 mph N/A   Unknown
1:56 AM 32.0 °F 16.2 °F 19.9 °F 61% 29.94 in - NW 38.0 mph 56.4 mph N/A   Unknown
2:56 AM 30.9 °F 14.3 °F 19.0 °F 61% 29.96 in - WNW 40.3 mph 50.6 mph N/A   Unknown
3:56 AM 30.0 °F 13.0 °F 19.0 °F 64% 29.97 in - WNW 40.3 mph 54.1 mph N/A   Unknown
4:56 AM 30.0 °F 13.2 °F 18.0 °F 61% 29.98 in - WNW 39.1 mph 48.3 mph N/A   Unknown
5:56 AM 28.9 °F 11.1 °F 18.0 °F 64% 29.99 in - WNW 42.6 mph 52.9 mph N/A   Unknown
6:56 AM 28.9 °F 11.5 °F 18.0 °F 64% 30.02 in - NW 40.3 mph 52.9 mph N/A   Unknown
7:56 AM 28.9 °F 10.1 °F 18.0 °F 64% 30.04 in - NW 49.5 mph 63.3 mph N/A   Unknown
8:56 AM 28.9 °F 11.7 °F 18.0 °F 64% 30.10 in - NW 39.1 mph 57.5 mph N/A   Unknown
9:56 AM 28.9 °F 11.0 °F 18.0 °F 64% 30.12 in - NW 43.7 mph 55.2 mph N/A   Unknown
10:56 AM 28.0 °F 10.3 °F 19.0 °F 69% 30.16 in - NNW 40.3 mph 49.5 mph N/A   Unknown
11:56 AM 28.9 °F 12.5 °F 17.1 °F 61% 30.17 in - NNW 34.5 mph 47.2 mph N/A   Unknown
12:56 PM 28.9 °F 12.8 °F 18.0 °F 64% 30.20 in - NW 33.4 mph 44.9 mph N/A   Unknown
1:56 PM 28.9 °F 12.3 °F 17.1 °F 61% 30.19 in - NNW 35.7 mph 42.6 mph N/A   Unknown
2:56 PM 28.9 °F 12.5 °F 19.0 °F 67% 30.22 in - NW 34.5 mph 42.6 mph N/A   Unknown
3:56 PM 28.9 °F 14.3 °F 19.0 °F 67% 30.25 in - NW 26.5 mph 36.8 mph N/A   Unknown
4:56 PM 26.1 °F 11.6 °F 19.0 °F 75% 30.25 in - NW 21.9 mph - N/A   Unknown
5:56 PM 25.0 °F 10.2 °F 19.0 °F 78% 30.26 in - NW 21.9 mph - N/A   Unknown
6:56 PM 24.1 °F 10.1 °F 18.0 °F 77% 30.26 in - NW 18.4 mph - N/A   Unknown
7:56 PM 21.9 °F 11.7 °F 17.1 °F 82% 30.27 in - West 9.2 mph - N/A   Unknown
8:56 PM 21.0 °F 9.3 °F 16.0 °F 81% 30.25 in - WNW 11.5 mph - N/A   Unknown
9:56 PM 19.9 °F 9.3 °F 16.0 °F 85% 30.23 in - West 9.2 mph - N/A   Unknown
10:56 PM 19.9 °F 6.7 °F 15.1 °F 81% 30.22 in - WNW 13.8 mph - N/A   Unknown
11:56 PM 19.9 °F 7.9 °F 15.1 °F 81% 30.19 in - West 11.5 mph - N/A   Unknown